Temperature
-0 0 0 1 1 1 1 2 2 2 3 3 3 3 3 3 3 3 3 3 3 3 3 3 4 4 4 4 4 4 4 4 4 4 4 5 5 5 5 5 5 5 5
-1 -0 -0 0 0 1 1 1 1 2 2 2 2 2 2 2 2 2 2 3 3 3 3 3 3 3 3 3 3 3 3 3 3 4 4 4 4 4 4 4 4 4 4
-1 -1 -1 -0 -0 0 0 1 1 1 1 2 2 1 1 2 2 2 2 2 2 2 2 2 2 2 3 3 3 3 3 3 3 3 3 3 3 3 3 3 4 4 4
-2 -1 -1 -1 -1 -0 -0 0 0 1 1 1 1 1 1 1 1 1 1 1 1 1 1 1 2 2 2 2 2 2 2 2 2 2 3 3 3 3 3 3 3 3 3
-2 -2 -1 -1 -1 -1 -1 -1 -0 -0 0 0 0 0 1 1 1 1 0 0 1 1 1 1 1 1 1 1 1 1 2 2 2 2 2 2 2 2 2 2 2 2 3
-2 -2 -2 -2 -2 -2 -1 -1 -1 -1 -1 -0 -0 -0 -0 -0 0 0 0 -0 -0 -0 0 0 0 0 1 1 1 1 1 1 1 1 1 1 2 2 1 2 2 2 2
-3 -3 -2 -2 -2 -2 -2 -2 -2 -1 -1 -1 -1 -1 -1 -1 -1 -1 -1 -1 -1 -0 -0 -0 -0 -0 -0 -0 0 0 0 1 1 1 1 1 1 1 1 1 1 1 1
-3 -3 -3 -3 -3 -2 -2 -2 -2 -2 -2 -2 -1 -1 -1 -1 -1 -1 -1 -1 -1 -1 -1 -1 -1 -1 -1 -1 -1 -0 -0 -0 -0 -0 -0 0 0 0 0 0 0 0 0
-4 -4 -3 -3 -3 -3 -3 -2 -2 -2 -2 -2 -2 -2 -2 -2 -2 -2 -2 -2 -2 -2 -1 -1 -1 -1 -1 -1 -1 -1 -1 -1 -1 -1 -1 -1 -0 -0 -0 -0 -0 -0 -0
-5 -4 -4 -4 -4 -3 -3 -3 -3 -3 -3 -3 -2 -2 -2 -2 -2 -2 -2 -2 -2 -2 -2 -2 -2 -2 -1 -1 -1 -1 -1 -1 -1 -1 -1 -1 -1 -1 -1 -1 -1 -1 -1
-5 -5 -5 -4 -4 -4 -4 -4 -3 -3 -3 -3 -3 -3 -3 -3 -3 -3 -3 -3 -3 -2 -2 -2 -2 -2 -2 -2 -2 -2 -2 -1 -2 -2 -2 -2 -1 -1 -1 -1 -1 -1 -1
-6 -5 -5 -5 -5 -5 -4 -4 -4 -4 -4 -4 -4 -3 -3 -3 -3 -3 -3 -3 -3 -3 -3 -3 -3 -3 -3 -3 -2 -2 -2 -2 -2 -2 -2 -2 -2 -2 -2 -2 -2 -2 -2
-6 -6 -6 -6 -5 -5 -5 -5 -5 -5 -5 -4 -4 -4 -4 -4 -4 -4 -4 -4 -3 -3 -3 -3 -3 -3 -3 -3 -3 -3 -3 -3 -3 -3 -3 -3 -3 -3 -3 -3 -2 -2 -3
-6 -6 -6 -6 -6 -6 -5 -5 -5 -5 -5 -5 -5 -5 -5 -4 -4 -4 -4 -4 -4 -4 -4 -4 -4 -4 -3 -3 -3 -3 -3 -3 -3 -3 -3 -3 -3 -3 -3 -3 -3 -3 -3
-7 -7 -7 -7 -6 -6 -6 -6 -6 -6 -6 -6 -5 -5 -5 -5 -5 -5 -5 -5 -4 -4 -4 -4 -4 -4 -4 -4 -4 -4 -4 -4 -4 -4 -4 -4 -4 -4 -4 -4 -4 -4 -4
-7 -7 -7 -7 -7 -7 -6 -6 -6 -6 -6 -6 -6 -6 -6 -5 -5 -5 -5 -5 -5 -5 -5 -5 -5 -5 -5 -5 -5 -5 -5 -4 -4 -4 -5 -5 -5 -5 -5 -5 -5 -5 -5
-8 -8 -8 -8 -7 -7 -7 -7 -7 -6 -6 -6 -6 -6 -6 -6 -6 -6 -5 -5 -5 -5 -5 -5 -5 -5 -5 -5 -5 -5 -5 -5 -5 -5 -5 -5 -5 -5 -5 -5 -5 -5 -5
-8 -8 -8 -8 -8 -8 -8 -7 -7 -7 -7 -7 -6 -7 -6 -6 -6 -6 -6 -6 -6 -6 -6 -6 -6 -6 -6 -6 -6 -6 -6 -6 -6 -6 -6 -6 -6 -6 -6 -6 -6 -6 -6
-8 -8 -8 -8 -8 -8 -8 -8 -8 -8 -8 -7 -7 -7 -7 -7 -7 -7 -7 -7 -7 -7 -7 -7 -7 -7 -7 -7 -6 -6 -6 -6 -6 -6 -6 -6 -6 -6 -6 -6 -6 -6 -6
-9 -9 -9 -9 -9 -8 -8 -8 -8 -8 -8 -8 -8 -8 -8 -8 -8 -8 -7 -7 -7 -7 -7 -7 -7 -7 -7 -7 -7 -7 -7 -7 -7 -7 -7 -7 -7 -7 -7 -7 -7 -7 -7
-9 -9 -9 -9 -9 -9 -9 -9 -9 -9 -9 -9 -9 -9 -9 -9 -9 -8 -8 -8 -8 -8 -8 -8 -8 -8 -8 -8 -8 -7 -7 -7 -7 -7 -7 -7 -7 -7 -7 -7 -7 -7 -7
-10 -10 -10 -9 -9 -9 -9 -9 -9 -9 -9 -9 -9 -9 -9 -9 -9 -9 -9 -9 -9 -9 -9 -9 -8 -8 -8 -8 -8 -8 -8 -8 -8 -8 -7 -7 -7 -7 -7 -7 -7 -7 -8
-10 -10 -10 -10 -10 -10 -10 -10 -10 -10 -10 -10 -10 -10 -10 -10 -9 -9 -9 -9 -9 -9 -9 -9 -9 -9 -9 -9 -9 -9 -8 -8 -8 -8 -8 -8 -8 -8 -8 -8 -8 -8 -8
-10 -10 -10 -10 -10 -10 -10 -10 -10 -10 -10 -10 -10 -10 -10 -10 -10 -10 -10 -9 -9 -10 -10 -9 -9 -9 -9 -9 -9 -9 -9 -9 -9 -9 -8 -8 -8 -8 -8 -8 -8 -8 -8
-11 -11 -11 -11 -11 -11 -11 -11 -11 -11 -11 -11 -11 -10 -10 -10 -10 -10 -10 -10 -10 -10 -10 -10 -10 -10 -10 -10 -10 -9 -9 -9 -9 -9 -9 -9 -9 -9 -9 -9 -9 -9 -9
-11 -11 -11 -11 -11 -11 -11 -11 -11 -11 -11 -11 -11 -11 -11 -11 -11 -11 -10 -10 -10 -10 -10 -10 -10 -10 -10 -10 -10 -10 -9 -9 -9 -9 -9 -9 -9 -9 -9 -9 -9 -9 -9
Wind_Speed
2 2 2 2 1 1 1 1 2 2 1 2 2 2 2 2 2 3 3 3 3 2 2 2 2 2 2 1 1 1 1 1 3 3 1 1 1 1 1 2 3 2 4
1 1 2 1 1 1 1 1 2 2 2 2 2 2 2 2 2 3 4 3 4 4 3 2 2 2 2 2 2 2 2 2 2 3 2 2 2 2 2 2 2 2 2
1 1 2 1 1 1 1 1 1 2 1 1 2 2 2 2 2 3 3 4 4 4 4 4 3 3 3 2 3 3 2 2 2 2 2 2 1 1 1 2 1 1 2
1 1 2 2 2 2 1 1 1 1 1 2 2 2 2 2 3 3 2 3 3 3 3 3 3 3 4 3 3 3 3 2 2 2 2 2 1 1 1 2 2 2 2
1 1 2 2 2 1 1 1 1 1 1 2 2 2 2 2 3 3 3 3 4 3 3 3 3 3 4 3 3 3 3 2 2 2 2 2 2 2 3 2 2 2 2
2 2 2 2 2 1 1 1 1 1 1 2 2 2 2 2 3 4 3 3 3 4 4 4 4 3 4 4 4 4 4 4 4 4 3 4 3 3 2 2 1 2 3
2 2 2 2 2 1 1 1 1 1 1 2 2 2 2 3 4 4 4 3 3 4 5 4 4 4 4 3 4 4 4 4 5 5 5 5 4 4 3 3 3 3 3
2 2 2 2 2 2 1 1 1 1 1 1 1 2 2 3 4 4 4 3 3 3 4 4 4 4 5 4 4 4 3 3 4 3 4 4 4 4 4 4 4 3 2
3 2 2 2 2 2 2 2 2 2 2 2 2 2 2 3 4 4 4 3 3 4 4 4 4 4 6 6 5 5 4 4 3 4 5 4 4 4 4 2 2 2 3
4 3 3 2 2 2 2 2 2 2 2 2 3 2 3 3 4 5 5 3 3 3 3 3 5 6 6 6 5 5 6 5 3 2 2 2 2 2 3 3 4 4 2
3 3 3 2 2 2 2 2 2 2 2 2 3 3 3 4 5 6 6 3 3 3 3 3 3 6 7 7 6 5 6 5 4 3 3 2 1 1 1 2 2 3 3
3 3 3 3 3 3 2 2 2 2 2 2 2 3 2 3 4 5 6 6 5 4 4 3 4 6 6 7 5 6 6 4 3 3 3 2 2 1 1 0 1 1 2
3 3 3 3 3 2 2 2 2 2 2 2 2 2 3 2 3 5 6 6 6 4 4 5 6 6 6 5 5 6 4 3 2 2 3 2 2 1 0 0 1 1 2
3 4 3 3 3 2 2 2 2 2 2 2 2 3 3 3 3 3 3 3 4 3 2 3 4 4 3 3 3 2 2 2 3 3 2 2 1 1 1 1 1 0 1
3 4 3 3 2 2 2 2 2 2 3 3 3 3 3 3 4 5 4 3 2 2 1 0 1 1 1 1 1 1 2 2 2 2 2 2 1 1 1 1 1 1 1
3 3 3 2 2 2 2 2 3 3 4 4 4 4 3 4 5 5 5 5 4 2 0 1 1 1 2 1 1 1 1 2 3 3 2 2 2 2 1 1 1 1 2
3 3 3 3 2 2 3 2 3 4 4 4 4 4 4 4 4 5 4 3 3 2 1 0 0 1 1 1 1 1 1 1 2 2 2 3 2 2 2 2 2 2 2
4 4 4 2 2 3 2 2 2 2 3 3 4 5 5 5 4 4 4 3 2 2 1 1 1 1 1 1 1 1 1 1 1 1 2 2 2 2 2 2 2 3 3
4 2 2 2 3 2 2 2 2 2 2 2 3 4 5 5 4 4 4 2 1 1 2 1 1 1 1 1 1 1 1 1 1 1 2 2 2 2 3 3 3 4 3
3 4 4 2 2 2 1 1 2 2 2 2 2 2 3 3 2 3 3 2 2 2 2 2 1 1 1 1 1 1 1 1 1 2 2 2 2 3 3 4 3 3 3
3 3 4 3 2 2 1 1 1 2 2 2 2 3 3 1 1 2 2 2 2 2 2 2 2 2 2 1 1 1 2 2 2 2 2 2 3 3 3 3 3 3 3
2 2 2 2 2 2 2 1 1 2 2 2 3 3 5 2 2 2 2 2 2 2 2 2 2 2 2 2 2 2 2 3 3 3 3 3 3 3 4 3 3 3 3
2 2 2 2 2 3 2 2 2 2 2 2 2 2 3 2 2 2 2 2 2 2 2 2 2 2 2 3 3 3 3 3 4 4 4 3 3 3 4 4 4 4 4
2 2 2 2 2 2 2 2 2 2 2 2 2 2 3 3 3 3 2 2 3 3 3 3 3 4 4 4 4 4 5 5 5 5 6 5 4 4 3 4 4 4 4
2 2 2 2 2 2 2 2 2 2 2 3 2 3 3 3 3 3 3 3 3 4 4 4 4 5 6 6 6 6 7 8 7 6 6 5 5 5 4 4 4 4 4
2 2 2 2 2 2 2 2 2 3 3 3 3 3 3 3 3 3 3 3 4 4 4 5 6 6 7 7 8 9 9 8 8 8 6 5 5 4 4 4 5 4 5
Wind_Direction
358 349 354 342 325 303 254 239 234 217 181 180 179 180 183 192 194 190 192 191 195 201 215 213 229 220 207 215 225 223 223 220 240 261 269 275 249 258 253 239 230 239 237
335 330 319 315 315 298 303 281 265 231 209 194 180 191 200 206 208 205 204 206 204 204 210 216 233 231 217 217 214 219 229 229 228 251 274 260 245 239 247 249 230 239 234
333 321 315 313 296 288 294 285 266 238 210 184 164 197 204 204 217 220 212 208 209 210 212 217 225 227 235 232 226 224 236 244 229 232 259 273 260 251 262 278 283 281 256
329 314 302 294 288 267 266 270 255 233 209 194 187 199 208 215 217 218 225 220 213 216 217 222 223 223 232 226 228 229 232 239 225 219 243 253 252 247 227 246 270 282 286
319 315 303 301 300 293 280 271 263 270 248 207 197 209 213 221 221 217 216 224 215 217 222 228 229 225 237 236 235 231 227 233 231 223 233 250 251 226 232 242 265 288 281
314 307 311 313 307 291 268 262 273 272 239 209 210 212 232 249 257 259 247 232 230 222 225 232 235 231 237 242 241 237 227 224 231 233 237 237 239 240 242 244 268 288 273
321 326 325 319 315 312 318 327 299 290 269 234 227 219 228 248 267 265 266 256 240 236 230 228 236 232 231 230 239 241 246 244 234 233 236 239 232 229 228 236 239 252 260
317 320 321 326 327 329 334 320 313 310 279 273 265 247 245 259 269 266 266 255 250 244 238 229 228 229 229 225 225 226 235 248 240 234 232 238 235 227 218 226 240 260 287
315 309 316 323 315 320 320 314 321 323 307 292 286 271 265 274 273 271 268 247 246 248 240 228 221 227 238 239 227 219 226 242 248 229 229 240 245 238 225 212 215 239 270
318 318 322 317 305 305 306 313 317 309 296 297 298 293 277 272 271 271 269 244 247 252 250 230 230 232 233 242 232 219 223 231 225 228 237 256 256 230 226 211 202 219 248
314 322 323 318 305 297 304 311 310 309 309 303 298 294 284 281 273 269 267 257 244 246 248 246 239 244 240 245 247 229 230 227 219 214 218 237 254 234 216 219 207 210 220
320 320 317 317 307 311 314 311 307 299 293 293 295 299 293 288 287 277 271 270 267 256 251 246 241 247 250 252 253 239 234 230 211 216 221 231 242 233 232 216 194 209 223
319 312 311 314 310 309 303 301 300 291 278 285 287 292 300 308 301 292 289 287 282 275 253 250 252 250 252 251 251 241 233 218 202 209 216 227 241 245 231 66 35 34 7
309 307 307 307 310 313 307 298 289 275 271 281 284 286 292 299 304 307 303 298 295 287 271 256 252 247 245 246 245 234 218 202 195 201 206 213 214 236 209 210 222 262 312
304 303 307 308 305 308 302 290 284 280 269 269 270 269 273 283 294 304 306 301 292 270 256 243 226 224 200 196 210 205 195 191 201 196 191 200 210 237 241 214 206 217 243
305 308 305 304 302 301 300 313 313 296 309 306 300 294 294 297 306 312 316 319 316 304 275 193 212 216 216 215 219 232 213 200 197 192 193 200 205 226 242 246 227 223 240
293 294 294 295 296 300 300 305 319 327 321 320 321 319 316 320 324 324 328 335 336 334 330 320 274 247 239 232 234 239 237 219 194 191 197 201 205 220 220 224 237 241 249
297 298 298 291 291 290 296 303 312 323 327 332 335 337 336 335 340 341 341 356 346 346 347 326 307 307 296 271 254 265 259 226 192 193 200 206 207 218 223 224 230 239 245
299 294 294 296 291 293 308 315 320 322 322 332 346 342 340 340 345 352 1 13 348 335 332 327 318 308 301 297 291 279 263 246 230 220 218 216 216 221 232 235 235 243 250
307 314 316 306 304 315 321 322 323 321 325 331 329 330 340 349 353 348 353 353 341 332 325 314 312 310 303 296 296 291 280 262 243 233 232 224 221 226 234 239 239 240 247
310 314 316 317 316 315 318 319 318 316 316 319 321 325 333 336 316 316 320 326 323 314 316 313 308 300 291 282 272 272 274 269 256 243 240 237 228 231 235 237 237 241 247
305 309 313 309 309 315 323 321 316 315 317 316 322 329 325 326 316 308 305 313 315 301 302 297 296 286 277 274 270 268 264 266 262 248 236 239 237 233 231 232 234 238 242
302 306 311 313 311 316 321 321 313 305 306 308 313 317 320 309 298 293 293 303 299 301 306 298 287 287 291 279 266 250 253 257 252 241 236 237 240 236 233 228 226 231 240
296 296 299 305 310 308 303 303 304 303 303 307 309 306 304 301 296 290 289 291 293 293 292 285 279 281 288 287 276 265 257 258 252 240 231 229 233 235 235 235 233 234 240
290 291 290 289 292 295 300 301 302 300 300 300 299 301 300 300 298 297 293 286 285 282 284 282 280 279 280 281 280 275 276 273 264 252 236 229 231 231 229 233 235 239 243
287 288 286 282 282 284 288 292 295 298 296 296 297 294 294 294 292 291 291 289 287 283 283 281 279 280 280 279 279 282 281 276 271 267 249 231 228 230 227 232 231 233 239
Height
1488 1489 1490 1491 1492 1493 1494 1496 1498 1499 1500 1502 1504 1505 1507 1509 1511 1513 1514 1516 1517 1519 1520 1522 1523 1524 1525 1526 1527 1528 1529 1530 1530 1530 1531 1532 1533 1534 1534 1534 1535 1535 1535
1487 1487 1488 1488 1489 1490 1491 1493 1494 1496 1498 1499 1500 1502 1504 1506 1508 1509 1509 1511 1513 1514 1516 1517 1518 1520 1521 1522 1523 1524 1525 1526 1526 1526 1526 1528 1528 1529 1529 1529 1530 1530 1530
1485 1485 1485 1486 1486 1487 1488 1490 1491 1493 1494 1495 1496 1498 1500 1501 1503 1504 1506 1507 1508 1510 1511 1513 1514 1515 1516 1517 1518 1519 1520 1521 1522 1522 1522 1523 1523 1524 1524 1525 1525 1525 1525
1483 1483 1483 1483 1484 1485 1486 1487 1488 1490 1490 1491 1492 1494 1496 1498 1499 1500 1501 1502 1504 1505 1506 1508 1509 1510 1511 1512 1513 1514 1515 1516 1517 1517 1517 1518 1519 1519 1520 1519 1520 1520 1520
1481 1481 1481 1481 1482 1483 1483 1485 1486 1487 1488 1488 1489 1491 1492 1494 1495 1496 1497 1498 1499 1500 1502 1503 1504 1506 1507 1508 1509 1509 1510 1511 1512 1512 1513 1513 1514 1514 1514 1515 1515 1515 1516
1478 1478 1478 1479 1479 1480 1481 1482 1483 1483 1484 1485 1486 1487 1488 1489 1491 1492 1493 1494 1495 1496 1497 1498 1499 1501 1502 1503 1504 1505 1506 1507 1507 1508 1508 1508 1508 1509 1510 1510 1510 1510 1511
1476 1476 1476 1476 1477 1477 1478 1479 1479 1480 1481 1482 1483 1484 1485 1486 1487 1488 1489 1490 1491 1492 1493 1494 1494 1495 1497 1498 1499 1500 1500 1501 1503 1503 1503 1503 1504 1505 1506 1506 1506 1507 1506
1474 1474 1474 1474 1474 1474 1475 1475 1476 1477 1478 1478 1479 1480 1481 1482 1483 1484 1485 1486 1486 1487 1488 1489 1490 1491 1492 1493 1494 1494 1495 1496 1497 1498 1498 1499 1500 1501 1501 1502 1502 1502 1502
1472 1471 1471 1471 1471 1471 1472 1473 1473 1474 1475 1475 1476 1477 1477 1478 1479 1480 1481 1481 1482 1482 1483 1484 1485 1486 1487 1488 1489 1489 1489 1490 1492 1492 1493 1494 1495 1496 1497 1497 1497 1498 1497
1470 1469 1469 1469 1469 1469 1469 1470 1471 1471 1472 1472 1473 1473 1474 1475 1475 1476 1477 1477 1477 1477 1478 1479 1480 1481 1482 1483 1484 1484 1484 1485 1486 1487 1488 1489 1489 1490 1491 1492 1492 1493 1492
1468 1467 1467 1467 1467 1466 1467 1467 1468 1469 1469 1469 1469 1470 1471 1471 1471 1472 1473 1473 1473 1473 1473 1474 1475 1476 1477 1478 1479 1479 1479 1480 1481 1482 1482 1483 1484 1485 1485 1486 1487 1488 1488
1465 1465 1464 1464 1464 1464 1464 1464 1465 1466 1466 1466 1466 1466 1467 1468 1468 1468 1469 1469 1469 1469 1469 1469 1470 1471 1472 1473 1473 1474 1475 1475 1476 1476 1477 1478 1479 1479 1480 1481 1482 1482 1483
1463 1462 1462 1462 1462 1462 1461 1461 1462 1463 1463 1463 1463 1463 1463 1464 1464 1464 1464 1464 1464 1464 1464 1464 1465 1466 1467 1468 1468 1469 1470 1470 1471 1471 1472 1473 1474 1475 1475 1476 1477 1478 1478
1461 1460 1460 1459 1459 1459 1459 1459 1459 1460 1459 1460 1460 1460 1460 1460 1460 1460 1460 1460 1460 1460 1460 1460 1461 1461 1462 1463 1463 1464 1464 1465 1466 1467 1468 1469 1470 1470 1471 1471 1472 1473 1473
1459 1458 1457 1457 1457 1456 1456 1457 1457 1457 1458 1458 1458 1458 1458 1457 1457 1458 1457 1457 1456 1456 1456 1456 1456 1457 1458 1459 1459 1459 1460 1461 1462 1463 1464 1464 1465 1466 1466 1466 1467 1468 1468
1456 1455 1455 1454 1454 1454 1454 1454 1454 1455 1455 1455 1456 1456 1455 1455 1455 1454 1454 1454 1453 1453 1453 1452 1452 1453 1454 1454 1455 1455 1456 1457 1458 1459 1460 1460 1461 1461 1462 1462 1463 1463 1463
1454 1453 1453 1452 1452 1452 1452 1451 1451 1452 1452 1452 1452 1452 1452 1452 1451 1451 1451 1451 1450 1450 1449 1449 1449 1450 1450 1451 1451 1452 1453 1453 1454 1455 1456 1456 1457 1458 1458 1458 1459 1459 1460
1452 1451 1451 1450 1450 1450 1450 1450 1449 1449 1449 1448 1449 1449 1449 1449 1448 1448 1448 1448 1447 1447 1446 1446 1446 1447 1447 1448 1448 1449 1449 1450 1450 1451 1452 1453 1453 1454 1454 1454 1455 1456 1456
1450 1449 1449 1448 1448 1448 1448 1448 1447 1447 1447 1446 1446 1446 1446 1446 1446 1446 1445 1444 1444 1444 1444 1444 1444 1444 1444 1445 1445 1446 1446 1446 1447 1448 1448 1449 1449 1450 1450 1450 1451 1451 1452
1448 1448 1447 1447 1446 1446 1445 1445 1445 1445 1444 1444 1444 1444 1444 1443 1443 1442 1442 1442 1441 1441 1441 1441 1441 1441 1441 1442 1442 1442 1443 1443 1443 1444 1444 1445 1445 1446 1446 1446 1446 1447 1447
1447 1446 1446 1445 1444 1444 1444 1444 1443 1443 1443 1442 1442 1442 1442 1441 1441 1440 1440 1440 1439 1439 1439 1439 1439 1438 1439 1439 1439 1439 1439 1439 1440 1440 1440 1441 1441 1442 1442 1442 1442 1443 1443
1445 1444 1443 1443 1443 1442 1442 1442 1441 1441 1441 1440 1440 1440 1439 1439 1438 1438 1438 1438 1437 1437 1437 1437 1436 1436 1436 1435 1435 1435 1435 1435 1435 1436 1436 1437 1437 1437 1438 1438 1438 1438 1438
1443 1442 1441 1441 1441 1440 1440 1440 1440 1439 1439 1438 1438 1437 1437 1436 1436 1436 1435 1435 1435 1435 1434 1434 1433 1433 1432 1432 1432 1431 1431 1431 1432 1432 1432 1432 1432 1433 1433 1433 1434 1434 1434
1441 1440 1439 1439 1439 1438 1438 1438 1437 1437 1437 1436 1435 1435 1434 1434 1433 1433 1432 1432 1432 1432 1431 1430 1430 1429 1429 1428 1428 1427 1427 1427 1427 1427 1427 1427 1428 1428 1428 1428 1428 1429 1430
1439 1438 1437 1437 1437 1436 1436 1435 1435 1435 1434 1434 1433 1432 1432 1431 1430 1430 1429 1429 1428 1428 1427 1427 1426 1425 1425 1424 1424 1423 1423 1423 1422 1422 1422 1422 1422 1423 1423 1424 1424 1424 1425
1437 1436 1435 1434 1434 1433 1433 1433 1432 1432 1432 1431 1430 1430 1429 1428 1427 1427 1426 1425 1425 1424 1423 1423 1422 1421 1421 1420 1419 1419 1418 1418 1417 1417 1417 1417 1417 1418 1418 1419 1419 1420 1420